Houghton, MI

1:59 AM EDT on March 26, 2017 (GMT -0400)
Houghton County Memorial

Weather History for KCMX - December, 2013

Change the Weather History Date:

Monday, December 2, 2013

  Actual Average Record
Temperature  
Mean Temperature 26 °F -  
Max Temperature 32 °F 28 °F 53 °F (1982)
Min Temperature 19 °F 17 °F -5 °F (1976)
Degree Days  
Heating Degree Days 40    
Moisture  
Dew Point 23 °F    
Average Humidity 82    
Maximum Humidity 96    
Minimum Humidity 67    
Precipitation  
Precipitation 0.00 in - - ()
Sea Level Pressure  
Sea Level Pressure 29.90 in    
Wind  
Wind Speed 3 mph (ESE)    
Max Wind Speed 17 mph    
Max Gust Speed -    
Visibility 9 miles    
Events Snow    
Averages and records for this station are not official NWS values.
T = Trace of Precipitation, MM = Missing Value Source: NWS Daily Summary

Daily Weather History Graph

Daily Weather History Graph

Search for Another Location

Airport or City:

Trip Planner

Search our weather history database for the weather conditions in past years. The results will help you decide how hot, cold, wet, or windy it might be!

Date:

Astronomy

Dec. 02, 2013 Rise Set
Actual Time 8:21 AM EST 5:05 PM EST
Civil Twilight 7:46 AM EST 5:40 PM EST
Nautical Twilight 7:07 AM EST 6:18 PM EST
Astronomical Twilight 6:31 AM EST 6:55 PM EST
Moon 7:43 AM EST (12/2) 5:10 PM EST (12/2)
Length of Visible Light 9h 54m
Length of Day
8h 44m
Waning Crescent, 0% of the Moon is Illuminated
Dec 2
Waning Crescent
Dec 2
New
Dec 9
First Quarter
Dec 17
Full
Dec 25
Last Quarter

Hourly Weather History & Observations

Time (EST) Temp. Windchill Dew Point Humidity Pressure Visibility Wind Dir Wind Speed Gust Speed Precip Events Conditions
12:31 AM 28.4 °F - 26.6 °F 93% 29.94 in 1.8 mi Calm Calm - N/A   Overcast
12:51 AM 26.6 °F - 24.8 °F 93% 29.94 in 3.0 mi Calm Calm - N/A   Overcast
12:53 AM 27.0 °F - 25.0 °F 92% 29.98 in 5.0 mi Calm Calm - N/A   Overcast
1:53 AM 27.0 °F - 24.1 °F 89% 29.96 in 9.0 mi Calm Calm - N/A   Overcast
2:53 AM 25.0 °F 20.7 °F 21.9 °F 88% 29.96 in 10.0 mi SE 3.5 mph - N/A   Overcast
3:53 AM 21.9 °F 17.2 °F 19.9 °F 92% 29.95 in 4.0 mi East 3.5 mph - N/A   Scattered Clouds
4:53 AM 19.9 °F - 19.0 °F 96% 29.95 in 8.0 mi Calm Calm - N/A   Clear
5:53 AM 21.0 °F - 19.9 °F 96% 29.94 in 10.0 mi Calm Calm - N/A   Scattered Clouds
6:53 AM 21.0 °F - 17.1 °F 85% 29.93 in 8.0 mi Calm Calm - N/A   Overcast
7:53 AM 24.1 °F - 19.9 °F 84% 29.92 in 10.0 mi Calm Calm - N/A   Scattered Clouds
8:53 AM 24.1 °F - 19.9 °F 84% 29.92 in 10.0 mi Calm Calm - N/A   Overcast
9:53 AM 26.1 °F - 21.9 °F 84% 29.92 in 10.0 mi Calm Calm - N/A   Overcast
10:53 AM 28.0 °F - 24.1 °F 85% 29.91 in 10.0 mi Calm Calm - N/A   Overcast
11:53 AM 30.0 °F - 25.0 °F 82% 29.90 in 10.0 mi Calm Calm - N/A   Overcast
12:27 PM 30.2 °F - 24.8 °F 80% 29.85 in 10.0 mi Calm Calm - N/A   Overcast
12:53 PM 30.0 °F 26.5 °F 24.1 °F 79% 29.90 in 10.0 mi ESE 3.5 mph - N/A   Overcast
1:31 PM 30.2 °F 25.4 °F 24.8 °F 80% 29.84 in 10.0 mi ESE 4.6 mph - N/A   Overcast
1:53 PM 30.0 °F 25.2 °F 25.0 °F 82% 29.88 in 10.0 mi ESE 4.6 mph - N/A   Overcast
2:53 PM 30.9 °F 24.3 °F 24.1 °F 76% 29.87 in 10.0 mi ESE 6.9 mph - N/A   Overcast
3:31 PM 30.2 °F 25.4 °F 24.8 °F 80% 29.82 in 10.0 mi East 4.6 mph - N/A   Overcast
3:53 PM 30.9 °F 26.2 °F 24.1 °F 76% 29.87 in 10.0 mi East 4.6 mph - N/A   Overcast
4:11 PM 30.2 °F 23.4 °F 24.8 °F 80% 29.82 in 10.0 mi East 6.9 mph - N/A   Overcast
4:53 PM 30.9 °F 26.2 °F 24.1 °F 76% 29.87 in 9.0 mi East 4.6 mph - N/A   Overcast
5:53 PM 30.9 °F 24.3 °F 24.1 °F 76% 29.88 in 10.0 mi ESE 6.9 mph - N/A   Overcast
6:53 PM 30.9 °F 23.5 °F 23.0 °F 72% 29.89 in 10.0 mi SE 8.1 mph - N/A   Overcast
7:53 PM 30.9 °F 22.2 °F 23.0 °F 72% 29.89 in 7.0 mi ESE 10.4 mph - 0.00 in Snow Light Snow
8:53 PM 32.0 °F 23.6 °F 24.1 °F 73% 29.89 in 10.0 mi SE 10.4 mph - 0.00 in   Overcast
9:53 PM 32.0 °F 23.0 °F 23.0 °F 69% 29.90 in 10.0 mi SE 11.5 mph - N/A   Overcast
10:53 PM 32.0 °F 22.1 °F 23.0 °F 69% 29.90 in 10.0 mi ESE 13.8 mph - N/A   Overcast
11:53 PM 30.9 °F 19.4 °F 21.0 °F 67% 29.90 in 10.0 mi ESE 17.3 mph - N/A   Overcast